Weather History for LTCE - January, 2013

Change the Weather History Date:

Saturday, January 26, 2013

  Actual Average Record
Temperature  
Mean Temperature 36 °F -  
Max Temperature 39 °F 28 °F - (-1)
Min Temperature 32 °F 13 °F - (-1)
Degree Days  
Heating Degree Days 30    
Moisture  
Dew Point 28 °F    
Average Humidity 71    
Maximum Humidity 81    
Minimum Humidity 50    
Precipitation  
Precipitation 0.00 in 0.03 in - ()
Sea Level Pressure  
Sea Level Pressure 30.02 in    
Wind  
Wind Speed 9 mph ()    
Max Wind Speed 16 mph    
Max Gust Speed -    
Visibility 6.5 miles    
Events      
Averages and records for this station are not official NWS values.
T = Trace of Precipitation, MM = Missing Value Source: Averaged Metar Reports

Daily Weather History Graph

Daily Weather History Graph

Search for Another Location

Airport or City:

Trip Planner

Search our weather history database for the weather conditions in past years. The results will help you decide how hot, cold, wet, or windy it might be!

Date:

Astronomy

Jan. 26, 2013 Rise Set
Actual Time 6:28 AM EET 4:27 PM EET
Civil Twilight 5:59 AM EET 4:56 PM EET
Nautical Twilight 5:27 AM EET 5:29 PM EET
Astronomical Twilight 4:55 AM EET 6:01 PM EET
Moon 4:00 PM EET (1/26) 5:33 AM EET (1/26)
Length of Visible Light 10h 56m
Length of Day
9h 58m
Waxing Gibbous, 99% of the Moon is Illuminated
Jan 26
Waxing Gibbous
Jan 27
Full
Feb 3
Last Quarter
Feb 10
New
Feb 17
First Quarter

Hourly Weather History & Observations

Time (EET) Temp. Windchill Dew Point Humidity Pressure Visibility Wind Dir Wind Speed Gust Speed Precip Events Conditions
12:20 AM 35.6 °F 28.6 °F 30.2 °F 81% 29.95 in 6.2 mi SW 9.2 mph - N/A   Scattered Clouds
12:50 AM 35.6 °F 28.6 °F 30.2 °F 81% 29.95 in 6.2 mi SSW 9.2 mph - N/A   Mostly Cloudy
1:20 AM 35.6 °F 29.9 °F 30.2 °F 81% 29.95 in 6.2 mi SSW 6.9 mph - N/A   Mostly Cloudy
1:50 AM 35.6 °F 29.2 °F 28.4 °F 75% 29.95 in 6.2 mi SW 8.1 mph - N/A   Mostly Cloudy
2:00 AM 36 °F - 29 °F 65%  in 12 mi SW 8.1 mph - -   Partly Cloudy
2:20 AM 35.6 °F 28.6 °F 28.4 °F 75% 29.98 in 6.2 mi SW 9.2 mph - N/A   Mostly Cloudy
2:50 AM 35.6 °F 28.6 °F 28.4 °F 75% 29.98 in 6.2 mi WSW 9.2 mph - N/A   Mostly Cloudy
3:20 AM 33.8 °F 25.8 °F 28.4 °F 81% 29.98 in 6.2 mi West 10.4 mph - N/A   Mostly Cloudy
3:50 AM 35.6 °F 29.2 °F 28.4 °F 75% 29.98 in 6.2 mi SW 8.1 mph - N/A   Mostly Cloudy
4:20 AM 35.6 °F 29.9 °F 28.4 °F 75% 29.98 in 6.2 mi SW 6.9 mph - N/A   Mostly Cloudy
4:50 AM 33.8 °F 24.8 °F 28.4 °F 81% 29.98 in 6.2 mi West 12.7 mph - N/A   Mostly Cloudy
5:20 AM 35.6 °F 28.6 °F 28.4 °F 75% 29.98 in 6.2 mi West 9.2 mph - N/A   Mostly Cloudy
5:50 AM 35.6 °F 29.2 °F 28.4 °F 75% 30.01 in 6.2 mi West 8.1 mph - N/A   Mostly Cloudy
6:20 AM 35.6 °F 28.0 °F 28.4 °F 75% 30.01 in 6.2 mi West 10.4 mph - N/A   Mostly Cloudy
6:50 AM 35.6 °F 28.0 °F 26.6 °F 70% 30.01 in 6.2 mi WSW 10.4 mph - N/A   Mostly Cloudy
7:20 AM 33.8 °F 24.8 °F 26.6 °F 75% 30.01 in 6.2 mi WSW 12.7 mph - N/A   Mostly Cloudy
7:50 AM 33.8 °F 23.9 °F 28.4 °F 81% 30.01 in 6.2 mi WSW 15.0 mph - N/A   Mostly Cloudy
8:00 AM 34 °F - 28 °F 69%  in 12 mi WSW 15.0 mph - -   Partly Cloudy
8:20 AM 35.6 °F 26.2 °F 28.4 °F 75% 30.01 in 6.2 mi West 15.0 mph - N/A   Mostly Cloudy
8:50 AM 35.6 °F 26.6 °F 28.4 °F 75% 30.04 in 6.2 mi West 13.8 mph - N/A   Mostly Cloudy
9:20 AM 37.4 °F 28.2 °F 28.4 °F 70% 30.04 in 6.2 mi WSW 16.1 mph - N/A   Mostly Cloudy
9:50 AM 35.6 °F 27.5 °F 28.4 °F 75% 30.04 in 6.2 mi West 11.5 mph - N/A   Mostly Cloudy
10:20 AM 37.4 °F 28.9 °F 28.4 °F 70% 30.04 in 6.2 mi West 13.8 mph - N/A   Mostly Cloudy
10:50 AM 37.4 °F 30.3 °F 28.4 °F 70% 30.04 in 6.2 mi West 10.4 mph - N/A   Mostly Cloudy
11:20 AM 37.4 °F 30.3 °F 28.4 °F 70% 30.04 in 6.2 mi West 10.4 mph - N/A   Mostly Cloudy
11:50 AM 37.4 °F 30.3 °F 28.4 °F 70% 30.04 in 6.2 mi West 10.4 mph - N/A   Mostly Cloudy
12:20 PM 37.4 °F 30.3 °F 28.4 °F 70% 30.04 in 6.2 mi West 10.4 mph - N/A   Mostly Cloudy
12:50 PM 37.4 °F 29.8 °F 30.2 °F 75% 30.04 in 6.2 mi WSW 11.5 mph - N/A   Mostly Cloudy
1:20 PM 37.4 °F 30.3 °F 30.2 °F 75% 30.01 in 6.2 mi WSW 10.4 mph - N/A   Mostly Cloudy
1:50 PM 37.4 °F 28.9 °F 30.2 °F 75% 30.01 in 6.2 mi WSW 13.8 mph - N/A   Mostly Cloudy
2:00 PM 38 °F - 29 °F 60%  in 12 mi WSW 13.8 mph - -   Partly Cloudy
2:20 PM 37.4 °F 29.8 °F 28.4 °F 70% 30.04 in 6.2 mi SW 11.5 mph - N/A   Mostly Cloudy
2:50 PM 37.4 °F 30.3 °F 28.4 °F 70% 30.04 in 6.2 mi SW 10.4 mph - N/A   Mostly Cloudy
3:20 PM 37.4 °F 32.1 °F 28.4 °F 70% 30.04 in 6.2 mi West 6.9 mph - N/A   Mostly Cloudy
3:50 PM 37.4 °F 30.8 °F 28.4 °F 70% 30.04 in 6.2 mi SW 9.2 mph - N/A   Mostly Cloudy
4:20 PM 37.4 °F 31.4 °F 28.4 °F 70% 30.04 in 6.2 mi SW 8.1 mph - N/A   Mostly Cloudy
4:50 PM 35.6 °F 30.7 °F 26.6 °F 70% 30.04 in 6.2 mi SSW 5.8 mph - N/A   Mostly Cloudy
5:20 PM 35.6 °F 29.2 °F 26.6 °F 70% 30.04 in 6.2 mi SW 8.1 mph - N/A   Mostly Cloudy
5:50 PM 37.4 °F 29.3 °F 26.6 °F 65% 30.04 in 6.2 mi SSW 12.7 mph - N/A   Mostly Cloudy
6:20 PM 35.6 °F 28.6 °F 26.6 °F 70% 30.06 in 6.2 mi SSW 9.2 mph - N/A   Mostly Cloudy
6:50 PM 35.6 °F 28.6 °F 26.6 °F 70% 30.06 in 6.2 mi SSW 9.2 mph - N/A   Mostly Cloudy
7:20 PM 37.4 °F 28.5 °F 24.8 °F 60% 30.06 in 6.2 mi South 15.0 mph - N/A   Mostly Cloudy
7:50 PM 37.4 °F 30.8 °F 26.6 °F 65% 30.06 in 6.2 mi SW 9.2 mph - N/A   Mostly Cloudy
8:00 PM 37 °F - 25 °F 50%  in 6 mi SW 9.2 mph - -   Partly Cloudy
8:20 PM 35.6 °F 31.7 °F 26.6 °F 70% 30.06 in 6.2 mi SW 4.6 mph - N/A   Mostly Cloudy
8:50 PM 37.4 °F 32.1 °F 26.6 °F 65% 30.06 in 6.2 mi WSW 6.9 mph - N/A   Mostly Cloudy
9:20 PM 37.4 °F 30.8 °F 26.6 °F 65% 30.06 in 6.2 mi SW 9.2 mph - N/A   Mostly Cloudy
9:50 PM 37.4 °F 32.8 °F 26.6 °F 65% 30.04 in 6.2 mi WSW 5.8 mph - N/A   Mostly Cloudy
10:20 PM 37.4 °F 33.8 °F 26.6 °F 65% 30.04 in 6.2 mi SW 4.6 mph - N/A   Mostly Cloudy
10:50 PM 35.6 °F 31.7 °F 26.6 °F 70% 30.04 in 6.2 mi Variable 4.6 mph - N/A   Mostly Cloudy
11:20 PM 39.2 °F 33.0 °F 26.6 °F 61% 30.04 in 6.2 mi SW 9.2 mph - N/A   Mostly Cloudy
11:50 PM 35.6 °F 32.8 °F 26.6 °F 70% 30.04 in 6.2 mi SSE 3.5 mph - N/A   Mostly Cloudy